Regional Weather Roundup
Issued by NWS Cleveland, OH

Home | Current Version | Previous Version | Graphics & Text | Print | Product List | Glossary On
Versions: 1 2 3 4 5 6 7 8 9 10 11 12 13 14 15 16 17 18 19 20 21 22 23 24 25 26 27 28 29 30 31 32 33 34 35 36 37 38 39 40 41 42 43 44 45 46 47 48 49 50
000
ASUS41 KCLE 221910
RWRCLE
OHIO REGIONAL WEATHER ROUNDUP
NATIONAL WEATHER SERVICE CLEVELAND, OH
300 PM EDT TUE JUL 22 2014

NOTE: "FAIR" INDICATES FEW OR NO CLOUDS BELOW 12,000 FEET WITH NO
SIGNIFICANT WEATHER AND/OR OBSTRUCTIONS TO VISIBILITY.

OHZ001>008-015>018-024>027-034-035-043-044-222000-
   NORTHWEST OHIO

CITY           SKY/WX    TMP DP  RH WIND       PRES   REMARKS
DEFIANCE       MOSUNNY   89  65  44 SW10      30.04S HX  91
FINDLAY        MOSUNNY   89  66  46 SW14      30.04S HX  91
TOLEDO EXPRESS MOSUNNY   90  64  42 SW12G21   30.03F HX  91
TOLEDO EXEC    SUNNY     90  63  40 SW17      30.03F HX  91
LIMA           SUNNY     88  66  48 SW12      30.07S HX  90
$$

OHZ009>014-019>023-028>033-038-089-222000-
   NORTHEAST OHIO

CITY           SKY/WX    TMP DP  RH WIND       PRES   REMARKS
CLE-HOPKINS    MOSUNNY   87  67  51 SW13G18   30.06F HX  90
CLE-LAKEFRONT  MOSUNNY   83  72  69 NE6       30.03F
CUY CO. ARPT   MOSUNNY   86  70  58 NW9       30.06F HX  90
LORAIN-ELYRIA  MOSUNNY   90  66  45 SW9       30.06F HX  92
ASHTABULA      MOSUNNY   86  66  51 SW10      30.07F
AKRON-CANTON   MOSUNNY   88  66  48 SW10      30.08F HX  90
WOOSTER        MOSUNNY   85  68  56 W8        30.09S
MANSFIELD      MOSUNNY   87  67  51 SW12      30.09F HX  90
YOUNGSTOWN     PTSUNNY   85  67  54 S5        30.08F
$$

OHZ042-051>053-060>062-070>072-077>081-222000-
  SOUTHWEST OHIO

CITY           SKY/WX    TMP DP  RH WIND       PRES   REMARKS
CINC-COVINGTON MOSUNNY   89  65  44 W9        30.08F HX  91
CINC-LUNKEN    MOSUNNY   91  65  41 W8        30.06F HX  93
HAMILTON       SUNNY     90  67  46 VRB5      30.07F HX  93
DAYTON         MOSUNNY   88  67  49 W14       30.09S HX  91
WRIGHT-PAT AFB MOSUNNY   88  68  50 SW10      30.07F HX  92
DAYTON GENERAL MOSUNNY   87  66  49 W7        30.07F
WILMINGTON     PTSUNNY   88  68  51 SW10      30.09S HX  91
$$

OHZ036-037-039>041-045>050-054>059-063>069-073>076-082>088-222000-
  CENTRAL AND SOUTHEAST OHIO

CITY           SKY/WX    TMP DP  RH WIND       PRES   REMARKS
COLUMBUS       MOSUNNY   91  65  41 SW8       30.07F HX  93
OSU AIRPORT    MOSUNNY   89  67  47 SW14      30.07F HX  92
BOLTON FIELD   PTSUNNY   84  72  65 S5        30.08
RICKENBACK AFB SUNNY     90  62  40 S7        30.07S HX  90
NEWARK         SUNNY     87  69  54 SW8       30.07F HX  91
MARION         SUNNY     88  65  46 SW12G17   30.07S HX  90
LANCASTER      MOSUNNY   87  70  56 W5        30.08F HX  92
ZANESVILLE     MOSUNNY   86  66  51 CALM      30.08F
NEW PHILLY     PTSUNNY   85  70  60 S7        30.09S
$$



USA.gov is the U.S. government's official web portal to all federal, state and local government web resources and services.